G0AMO Weather Reports


time (UTC)temp
F
wind
direction
speed
knots
gust
knots
rain 1hr
in
rain 24hr
in
rain mn
in
humidity
%
barometer
mb
20260508004505 47 83 0.0 1.7 0.00 0.00 0.00 87 1015.9
20260508004004 47 106 0.9 1.7 0.00 0.00 0.00 87 1015.9
20260508003505 47 82 0.0 6.1 0.00 0.00 0.00 87 1016.9
20260508002505 47 33 0.0 4.3 0.00 0.00 0.00 87 1017.3
20260508002004 47 33 0.0 0.0 0.00 0.00 0.00 87 1015.9
20260508001503 47 59 0.0 0.0 0.00 0.00 0.00 87 1015.9
20260508001005 47 60 0.0 0.0 0.00 0.00 0.00 87 1017.3
20260508000503 47 31 0.0 0.0 0.00 0.00 0.00 86 1017.3
20260508000005 47 67 0.0 0.0 0.00 0.00 0.00 86 1015.9
20260507235504 47 66 0.0 0.0 0.00 0.00 0.00 86 1016.3
20260507235004 47 65 0.0 0.0 0.00 0.00 0.00 86 1016.3
20260507234004 47 67 0.0 0.0 0.00 0.00 0.00 86 1017.6
20260507233503 47 67 0.0 0.0 0.00 0.00 0.00 85 1017.3
20260507233003 47 80 0.0 0.0 0.00 0.00 0.00 85 1017.3
20260507232505 47 74 0.0 0.0 0.00 0.00 0.00 86 1017.3
20260507232004 47 81 0.0 0.0 0.00 0.00 0.00 86 1016.3
20260507231003 47 76 0.0 0.0 0.00 0.00 0.00 85 1016.3
20260507225503 47 89 0.0 0.0 0.00 0.00 0.00 85 1017.3
20260507225004 47 82 0.0 0.0 0.00 0.00 0.00 85 1016.3
20260507224505 47 63 0.0 0.0 0.00 0.00 0.00 84 1016.3
20260507224004 47 65 0.0 1.7 0.00 0.00 0.00 84 1016.3
20260507223505 47 72 0.9 4.3 0.00 0.00 0.00 84 1016.3
20260507223004 48 64 1.7 4.3 0.00 0.00 0.00 83 1017.6
20260507222503 48 56 0.0 0.0 0.00 0.00 0.00 82 1017.6
20260507222004 48 83 0.0 1.7 0.00 0.00 0.00 82 1016.3
20260507221504 48 98 0.0 1.7 0.00 0.00 0.00 81 1017.3
20260507221003 48 57 0.0 4.3 0.00 0.00 0.00 81 1016.3
20260507220004 49 49 0.0 0.0 0.00 0.00 0.00 79 1016.6
20260507215504 49 51 0.0 0.0 0.00 0.00 0.00 78 1017.3
20260507214504 49 86 0.0 1.7 0.00 0.00 0.00 78 1017.6
20260507214004 49 121 0.9 1.7 0.00 0.00 0.00 78 1016.3
20260507213505 49 96 0.0 0.0 0.00 0.00 0.00 77 1016.6
20260507213004 49 126 0.0 0.0 0.00 0.00 0.00 77 1016.3
20260507212504 49 129 0.0 0.0 0.00 0.00 0.00 77 1016.6
20260507211504 49 121 0.0 0.0 0.00 0.00 0.00 76 1016.3
20260507211005 50 69 0.0 0.0 0.00 0.00 0.00 75 1016.3
20260507210504 50 58 1.7 4.3 0.00 0.00 0.00 74 1016.3
20260507210005 50 59 0.9 4.3 0.00 0.00 0.00 73 1016.7
20260507205503 50 84 0.0 4.3 0.00 0.00 0.00 73 1016.9
20260507205004 50 115 0.0 4.3 0.00 0.00 0.00 74 1017.1
20260507204004 50 155 0.0 0.0 0.00 0.00 0.00 74 1017.3
20260507203004 51 154 0.0 0.0 0.00 0.00 0.00 73 1017.3
20260507202505 51 163 0.0 0.0 0.00 0.00 0.00 73 1016.9
20260507201504 51 143 0.0 0.0 0.00 0.00 0.00 73 1015.9
20260507201004 51 132 0.0 0.0 0.00 0.00 0.00 73 1015.9
20260507200503 51 96 0.0 1.7 0.00 0.00 0.00 72 1016.1
20260507200005 52 115 0.0 4.3 0.00 0.00 0.00 72 1016.6
20260507194504 52 116 0.0 0.0 0.00 0.00 0.00 71 1016.6
20260507194004 53 110 0.0 0.0 0.00 0.00 0.00 71 1015.6
20260507193503 53 71 0.0 1.7 0.00 0.00 0.00 70 1015.6
20260507193003 53 113 0.0 1.7 0.00 0.00 0.00 70 1015.6
20260507192505 53 144 0.0 0.0 0.00 0.00 0.00 69 1016.3
20260507192004 54 81 0.0 0.0 0.00 0.00 0.00 68 1016.3
20260507191504 54 81 0.0 0.0 0.00 0.00 0.00 67 1015.6
20260507191004 55 119 0.0 1.7 0.00 0.00 0.00 67 1015.2
20260507190005 55 174 0.0 0.0 0.00 0.00 0.00 65 1015.2
20260507185504 55 199 0.0 4.3 0.00 0.00 0.00 64 1015.9
20260507185004 56 136 0.0 4.3 0.00 0.00 0.00 64 1015.9
20260507184504 56 247 0.0 1.7 0.00 0.00 0.00 63 1015.2
20260507184004 56 209 0.0 1.7 0.00 0.00 0.00 63 1015.6
20260507183505 56 183 0.0 1.7 0.00 0.00 0.00 63 1015.2
20260507183005 56 184 0.0 1.7 0.00 0.00 0.00 63 1015.9
20260507182503 57 128 0.0 0.0 0.00 0.00 0.00 63 1015.2
20260507182004 57 212 0.0 0.0 0.00 0.00 0.00 61 1015.2
20260507181505 57 266 0.0 0.0 0.00 0.00 0.00 60 1015.2
20260507181003 57 58 0.0 0.0 0.00 0.00 0.00 60 1014.9
20260507180005 58 196 0.0 0.0 0.00 0.00 0.00 59 1015.2
20260507175505 58 115 0.0 0.0 0.00 0.00 0.00 60 1015.2
20260507175004 58 143 0.0 1.7 0.00 0.00 0.00 60 1014.9
20260507173504 58 268 0.0 0.0 0.00 0.00 0.00 60 1015.2
20260507173005 59 243 0.0 0.0 0.00 0.00 0.00 59 1015.9
20260507172504 59 188 0.0 1.7 0.00 0.00 0.00 59 1015.9
20260507171504 60 93 0.0 2.6 0.00 0.00 0.00 57 1015.2
20260507170504 61 116 4.3 10.4 0.00 0.00 0.00 57 1015.6
20260507170005 61 101 0.0 1.7 0.00 0.00 0.00 56 1015.6
20260507165503 61 101 0.0 0.0 0.00 0.00 0.00 57 1015.2
20260507165003 63 279 0.0 0.0 0.00 0.00 0.00 53 1015.2
20260507164504 62 252 0.0 0.0 0.00 0.00 0.00 54 1015.2
20260507164005 62 252 0.0 0.0 0.00 0.00 0.00 57 1015.6
20260507163504 61 252 0.0 1.7 0.00 0.00 0.00 56 1015.6
20260507163004 61 252 0.0 1.7 0.00 0.00 0.00 58 1015.9
20260507162504 61 257 0.0 1.7 0.00 0.00 0.00 57 1015.2
20260507162004 61 257 0.9 1.7 0.00 0.00 0.00 58 1015.9
20260507161504 61 273 0.0 0.0 0.00 0.00 0.00 59 1015.2
20260507161005 61 222 0.0 0.0 0.00 0.00 0.00 60 1015.9
20260507160503 60 83 0.0 1.7 0.00 0.00 0.00 61 1015.9
20260507160005 59 83 0.0 1.7 0.00 0.00 0.00 62 1016.3
20260507155504 59 114 0.0 1.7 0.00 0.00 0.00 60 1016.3
20260507155004 59 111 0.0 0.0 0.00 0.00 0.00 61 1016.3
20260507154004 59 202 0.0 1.7 0.00 0.00 0.00 60 1015.6
20260507153504 59 185 0.0 6.1 0.00 0.00 0.00 59 1016.3
20260507153005 58 272 0.9 6.1 0.00 0.00 0.00 60 1016.3
20260507152504 58 215 0.0 4.3 0.00 0.00 0.00 60 1016.3
20260507152003 58 308 0.0 6.1 0.00 0.00 0.00 60 1015.6
20260507151505 59 242 2.6 6.1 0.00 0.00 0.00 58 1015.6
20260507151005 59 250 0.0 4.3 0.00 0.00 0.00 59 1015.6
20260507150504 59 293 0.0 4.3 0.00 0.00 0.00 59 1016.3
20260507150005 59 87 0.0 1.7 0.00 0.00 0.00 57 1015.6
20260507145505 59 329 0.0 0.0 0.00 0.00 0.00 58 1015.6
20260507145005 58 329 0.0 13.9 0.00 0.00 0.00 61 1015.6
20260507144505 58 312 1.7 13.9 0.00 0.00 0.00 58 1016.3
20260507144005 58 299 0.9 4.3 0.00 0.00 0.00 61 1016.3
20260507143005 58 313 0.0 4.3 0.00 0.00 0.00 62 1016.3
20260507142504 58 133 0.0 4.3 0.00 0.00 0.00 62 1016.3
20260507142003 58 215 1.7 2.6 0.00 0.00 0.00 62 1015.9
20260507141505 58 191 0.0 1.7 0.00 0.00 0.00 61 1015.9
20260507141004 58 86 0.0 1.7 0.00 0.00 0.00 59 1015.9
20260507140504 58 247 0.0 2.6 0.00 0.00 0.00 60 1015.6
20260507140004 59 267 0.9 2.6 0.00 0.00 0.00 58 1015.6
20260507135504 59 237 0.9 1.7 0.00 0.00 0.00 58 1015.6
20260507134504 60 176 0.0 1.7 0.00 0.00 0.00 57 1016.3
20260507134004 60 128 0.0 0.0 0.00 0.00 0.00 56 1015.6
20260507133504 61 237 0.0 1.7 0.00 0.00 0.00 56 1015.6
20260507132504 62 287 0.0 0.0 0.00 0.00 0.00 49 1016.3
20260507132004 61 87 0.0 0.0 0.00 0.00 0.00 53 1016.3
20260507131504 61 196 0.0 10.4 0.00 0.00 0.00 51 1015.9
20260507131004 60 128 2.6 10.4 0.00 0.00 0.00 52 1016.3
20260507130004 60 100 0.9 6.1 0.00 0.00 0.00 52 1016.3
20260507125504 61 113 0.0 6.1 0.00 0.00 0.00 51 1016.3
20260507125005 61 116 0.0 1.7 0.00 0.00 0.00 52 1016.3
20260507124504 60 102 0.0 1.7 0.00 0.00 0.00 53 1016.0
20260507123504 60 244 0.9 4.3 0.00 0.00 0.00 50 1015.9
20260507123004 60 263 1.7 6.1 0.00 0.00 0.00 50 1016.1
20260507122503 60 136 1.7 6.1 0.00 0.00 0.00 50 1016.0
20260507122004 61 265 1.7 4.3 0.00 0.00 0.00 48 1015.9
20260507121504 61 300 0.9 2.6 0.00 0.00 0.00 49 1015.9
20260507121004 60 255 0.0 1.7 0.00 0.00 0.00 50 1015.9
20260507120504 60 173 0.9 6.1 0.00 0.00 0.00 50 1016.2
20260507120006 60 96 0.9 6.1 0.00 0.00 0.00 51 1016.4
20260507115503 60 101 0.0 0.0 0.00 0.00 0.00 51 1015.9
20260507115004 60 180 1.7 2.6 0.00 0.00 0.00 49 1016.0
20260507114505 60 255 1.7 4.3 0.00 0.00 0.00 48 1016.3
20260507114004 61 61 0.9 6.1 0.00 0.00 0.00 50 1016.5
20260507113004 60 165 0.0 1.7 0.00 0.00 0.00 52 1016.6
20260507111506 60 214 0.9 2.6 0.00 0.00 0.00 57 1016.6
20260507110504 60 106 0.9 4.3 0.00 0.00 0.00 55 1016.3
20260507110004 59 117 0.9 4.3 0.00 0.00 0.00 54 1016.6
20260507105504 59 262 0.0 0.0 0.00 0.00 0.00 56 1016.3
20260507105004 59 73 0.0 0.0 0.00 0.00 0.00 56 1016.3
20260507104504 59 256 0.9 2.6 0.00 0.00 0.00 56 1016.3
20260507104004 59 313 1.7 2.6 0.00 0.00 0.00 54 1016.6
20260507103504 59 145 0.0 1.7 0.00 0.00 0.00 60 1016.3
20260507102505 58 308 0.9 6.1 0.00 0.00 0.00 56 1016.6
20260507101504 61 301 1.7 4.3 0.00 0.00 0.00 58 1016.6
20260507100503 58 89 0.9 7.8 0.00 0.00 0.00 61 1016.9
20260507095504 61 237 0.0 2.6 0.00 0.00 0.00 59 1016.9
20260507095004 61 267 1.7 2.6 0.00 0.00 0.00 57 1016.9
20260507094504 59 65 0.0 7.0 0.00 0.00 0.00 61 1016.6
20260507094005 59 58 4.3 7.0 0.00 0.00 0.00 62 1016.9
20260507093504 57 61 0.9 1.7 0.00 0.00 0.00 63 1017.3
20260507093004 60 89 0.9 1.7 0.00 0.00 0.00 59 1016.9
20260507092505 60 88 0.9 1.7 0.00 0.00 0.00 63 1017.3
20260507092004 59 50 0.0 1.7 0.00 0.00 0.00 64 1016.9
20260507091503 60 98 0.0 0.0 0.00 0.00 0.00 63 1016.9
20260507090503 59 224 0.0 0.0 0.00 0.00 0.00 64 1017.3
20260507090006 59 224 0.0 0.0 0.00 0.00 0.00 66 1017.3
20260507085504 59 193 0.0 0.0 0.00 0.00 0.00 66 1017.3
20260507085004 58 70 0.0 0.0 0.00 0.00 0.00 67 1017.3
20260507084505 58 84 0.0 0.0 0.00 0.00 0.00 68 1017.3
20260507084004 56 83 0.0 1.7 0.00 0.00 0.00 70 1016.6
20260507083505 56 208 0.0 1.7 0.00 0.00 0.00 74 1016.9
20260507083004 54 110 1.7 2.6 0.00 0.00 0.00 76 1016.6
20260507082504 53 58 1.7 6.1 0.00 0.00 0.00 77 1016.6
20260507082004 53 83 4.3 6.1 0.00 0.00 0.00 77 1017.3
20260507081503 53 54 4.3 6.1 0.00 0.00 0.00 77 1016.9
20260507081005 53 122 0.9 2.6 0.00 0.00 0.00 78 1016.3
20260507080004 53 83 1.7 6.1 0.00 0.00 0.00 79 1017.3
20260507075504 52 92 4.3 7.8 0.00 0.00 0.00 79 1016.9
20260507074504 52 102 1.7 7.8 0.00 0.00 0.00 80 1017.3
20260507073505 51 98 2.6 6.1 0.00 0.00 0.00 82 1016.9
20260507073004 50 87 4.3 10.4 0.00 0.00 0.00 82 1016.6
20260507072505 50 61 7.0 10.4 0.00 0.00 0.00 82 1017.3
20260507072004 49 82 0.0 7.0 0.00 0.00 0.00 84 1016.6
20260507071504 51 109 4.3 7.0 0.00 0.00 0.00 81 1016.6
20260507071004 51 102 1.7 7.8 0.00 0.00 0.00 82 1016.9
20260507070504 49 90 2.6 7.8 0.00 0.00 0.00 84 1016.9
20260507070008 49 97 4.3 6.1 0.00 0.00 0.00 83 1016.9
20260507065504 49 76 4.3 4.3 0.00 0.00 0.00 83 1016.6
20260507065004 49 133 0.9 4.3 0.00 0.00 0.00 84 1016.3
20260507064504 49 99 2.6 6.1 0.00 0.00 0.00 83 1016.3
20260507064004 49 106 4.3 7.8 0.00 0.00 0.00 84 1016.3
20260507063505 48 78 4.3 7.8 0.00 0.00 0.00 86 1017.3
20260507063005 47 96 2.6 6.1 0.00 0.00 0.00 86 1015.9
20260507062004 47 68 1.7 6.1 0.00 0.00 0.00 86 1017.3
20260507061504 47 95 0.0 4.3 0.00 0.00 0.00 86 1016.9
20260507061004 47 103 0.0 0.0 0.00 0.00 0.00 86 1016.3
20260507060505 46 116 0.0 0.0 0.00 0.00 0.00 87 1015.6
20260507060004 45 79 0.0 0.0 0.00 0.00 0.00 88 1015.6
20260507055504 44 108 0.0 0.0 0.00 0.00 0.00 90 1017.3
20260507055004 44 48 0.0 0.0 0.00 0.00 0.00 95 1016.9
20260507054504 41 48 0.0 0.0 0.00 0.00 0.00 94 1017.3
20260507054004 40 48 0.0 0.0 0.00 0.00 0.00 95 1015.9
20260507053503 39 48 0.0 0.0 0.00 0.00 0.00 95 1015.6
20260507053005 39 48 0.0 0.0 0.00 0.00 0.00 95 1015.6
20260507052505 39 48 0.0 0.0 0.00 0.00 0.00 95 1015.6
20260507052004 39 48 0.0 0.0 0.00 0.00 0.00 95 1017.3
20260507051504 38 48 0.0 0.0 0.00 0.00 0.00 95 1017.3
20260507051004 38 48 0.0 0.0 0.00 0.00 0.00 95 1016.9
20260507050504 38 48 0.0 0.0 0.00 0.00 0.00 95 1016.9
20260507050004 38 48 0.0 0.0 0.00 0.00 0.00 94 1015.6
20260507045503 38 48 0.0 0.0 0.00 0.00 0.00 94 1015.6
20260507044504 38 48 0.0 0.0 0.00 0.00 0.00 94 1015.6
20260507043504 38 48 0.0 0.0 0.00 0.00 0.00 94 1015.9
20260507043005 38 48 0.0 0.0 0.00 0.00 0.00 94 1015.6
20260507042504 38 48 0.0 0.0 0.00 0.00 0.00 94 1015.6
20260507042004 38 48 0.0 0.0 0.00 0.00 0.00 94 1015.6
20260507041505 38 48 0.0 0.0 0.00 0.00 0.00 94 1015.6
20260507041005 39 48 0.0 0.0 0.00 0.00 0.00 94 1015.6
20260507040504 39 52 0.0 0.0 0.00 0.00 0.00 94 1016.4
20260507035004 39 57 0.0 0.0 0.00 0.00 0.00 94 1015.4
20260507034504 39 57 0.0 0.0 0.00 0.00 0.00 94 1016.0
20260507034004 39 57 0.0 0.0 0.00 0.00 0.00 94 1016.5
20260507033504 39 57 0.0 0.0 0.00 0.00 0.00 94 1015.3
20260507033005 39 57 0.0 0.0 0.00 0.00 0.00 94 1015.6
20260507032504 39 57 0.0 0.0 0.00 0.00 0.00 94 1015.8
20260507032004 39 57 0.0 0.0 0.00 0.00 0.00 94 1016.8
20260507031504 39 57 0.0 0.0 0.00 0.00 0.00 94 1015.3
20260507031004 39 57 0.0 0.0 0.00 0.00 0.00 94 1015.6
20260507030505 39 57 0.0 0.0 0.00 0.00 0.00 94 1015.6
20260507025504 39 57 0.0 0.0 0.00 0.00 0.00 94 1016.9
20260507025003 39 57 0.0 0.0 0.00 0.00 0.00 94 1016.6
20260507024504 38 57 0.0 0.0 0.00 0.00 0.00 94 1015.2
20260507024004 38 57 0.0 0.0 0.00 0.00 0.00 94 1016.9
20260507023503 38 57 0.0 0.0 0.00 0.00 0.00 94 1015.2
20260507023004 38 57 0.0 0.0 0.00 0.00 0.00 94 1015.2
20260507021504 38 57 0.0 0.0 0.00 0.00 0.00 93 1016.6
20260507021004 39 57 0.0 0.0 0.00 0.00 0.00 93 1015.6
20260507020504 39 57 0.0 0.0 0.00 0.00 0.00 93 1015.2
20260507015504 39 57 0.0 0.0 0.00 0.00 0.00 93 1015.2
20260507015004 39 57 0.0 0.0 0.00 0.00 0.00 93 1016.6
20260507014503 39 57 0.0 0.0 0.00 0.00 0.00 93 1016.6
20260507013503 40 81 0.0 0.0 0.00 0.00 0.00 93 1016.6
20260507013005 40 81 0.0 0.0 0.00 0.00 0.00 93 1015.2
20260507011004 40 81 0.0 0.0 0.00 0.00 0.00 92 1015.2
20260507010503 40 81 0.0 0.0 0.00 0.00 0.00 91 1016.6
20260507005504 41 81 0.0 0.0 0.00 0.00 0.00 91 1015.2